Location: Izdebno
(52.6670°N, 16.2170°E)
Time: 06:45:07
(UTC+02:00)

Vanguard 1 - Pass Details

Date: 23 February 2024
Orbit: 653 x 3825 km, 34.2° (Epoch: 22 April)

Event Time Altitude Azimuth Distance (km) Brightness Sun altitude
Exits shadow 03:03:02 13° 182° (S) 5,953 13.7 -34.8°
Drops below altitude 10° 03:04:33 10° 178° (S) 6,077 13.8 -34.6°
Sets 03:10:01 0° 166° (SSE) 6,654 14.1 -34.0°
